Canby, MN

6:55 PM CDT on August 29, 2016 (GMT -0500)
Canby

Weather History for KCNB - May, 2014

Change the Weather History Date:

Monday, May 19, 2014

  Actual Average (KMML) Record (KMML)
Temperature  
Mean Temperature 66 °F -  
Max Temperature 71 °F 72 °F 93 °F (1970)
Min Temperature 60 °F 48 °F 8 °F (2002)
Growing Degree Days 16 (Base 50)    
Moisture  
Dew Point 52 °F    
Average Humidity 66    
Maximum Humidity 87    
Minimum Humidity 42    
Precipitation  
Precipitation 0.00 in - - ()
Sea Level Pressure  
Sea Level Pressure 29.73 in    
Wind  
Wind Speed 13 mph (SSE)    
Max Wind Speed 22 mph    
Max Gust Speed 31 mph    
Visibility 10 miles    
Events Rain , Thunderstorm    
Averages and records for this station are not official NWS values.
T = Trace of Precipitation, MM = Missing Value Source: NWS Daily Summary

Daily Weather History Graph

Daily Weather History Graph

Search for Another Location

Airport or City:

Trip Planner

Search our weather history database for the weather conditions in past years. The results will help you decide how hot, cold, wet, or windy it might be!

Date:

Astronomy

May. 19, 2014 Rise Set
Actual Time 5:52 AM CDT 8:51 PM CDT
Civil Twilight 5:18 AM CDT 9:25 PM CDT
Nautical Twilight 4:34 AM CDT 10:10 PM CDT
Astronomical Twilight 3:41 AM CDT 11:02 PM CDT
Moon 12:36 AM CDT (5/19) 10:55 AM CDT (5/19)
Length of Visible Light 16h 07m
Length of Day
14h 58m
Waning Gibbous, 71% of the Moon is Illuminated
May 19
Waning Gibbous
May 21
Last Quarter
May 28
New
Jun 5
First Quarter
Jun 12
Full

Hourly Weather History & Observations

Time (CDT) Temp. Dew Point Humidity Pressure Visibility Wind Dir Wind Speed Gust Speed Precip Events Conditions
12:14 AM 63.1 °F 39.4 °F 42% 29.87 in 10.0 mi SSE 13.8 mph - N/A   Overcast
12:34 AM 63.5 °F 39.7 °F 42% 29.88 in 10.0 mi SSE 13.8 mph 21.9 mph N/A   Overcast
12:54 AM 63.5 °F 39.9 °F 42% 29.88 in 10.0 mi SSE 13.8 mph - N/A   Overcast
1:15 AM 63.1 °F 40.3 °F 43% 29.88 in 10.0 mi SSE 12.7 mph - N/A   Overcast
1:34 AM 63.0 °F 41.0 °F 45% 29.87 in 10.0 mi SSE 12.7 mph - N/A   Overcast
1:54 AM 62.8 °F 41.9 °F 46% 29.86 in 10.0 mi SSE 15.0 mph 20.7 mph N/A   Overcast
2:15 AM 63.1 °F 43.0 °F 48% 29.84 in 10.0 mi SSE 15.0 mph 23.0 mph N/A   Overcast
2:35 AM 62.6 °F 43.0 °F 49% 29.83 in 10.0 mi SSE 15.0 mph - N/A   Overcast
2:54 AM 62.2 °F 43.3 °F 50% 29.82 in 10.0 mi SSE 19.6 mph - N/A   Overcast
3:14 AM 61.7 °F 43.3 °F 51% 29.80 in 10.0 mi SE 16.1 mph 25.3 mph N/A   Mostly Cloudy
3:35 AM 61.3 °F 43.5 °F 52% 29.79 in 10.0 mi SE 18.4 mph 24.2 mph N/A   Scattered Clouds
3:54 AM 61.0 °F 43.7 °F 53% 29.78 in 10.0 mi SSE 15.0 mph 21.9 mph N/A   Mostly Cloudy
4:14 AM 60.8 °F 43.7 °F 53% 29.76 in 10.0 mi SSE 18.4 mph 24.2 mph N/A   Scattered Clouds
4:34 AM 60.8 °F 43.9 °F 54% 29.75 in 10.0 mi SSE 19.6 mph 27.6 mph N/A   Scattered Clouds
4:54 AM 60.8 °F 44.4 °F 55% 29.75 in 10.0 mi SSE 18.4 mph 27.6 mph N/A   Mostly Cloudy
5:14 AM 60.8 °F 44.6 °F 55% 29.74 in 10.0 mi SSE 21.9 mph 31.1 mph N/A   Overcast
5:34 AM 60.4 °F 45.1 °F 57% 29.73 in 10.0 mi SSE 18.4 mph 26.5 mph N/A   Mostly Cloudy
5:54 AM 60.3 °F 45.5 °F 58% 29.73 in 10.0 mi SSE 17.3 mph 28.8 mph N/A   Mostly Cloudy
6:14 AM 60.3 °F 46.0 °F 59% 29.73 in 10.0 mi SSE 15.0 mph 19.6 mph N/A   Overcast
6:34 AM 60.3 °F 46.6 °F 61% 29.75 in 10.0 mi SSE 13.8 mph - N/A   Overcast
6:54 AM 60.4 °F 47.3 °F 62% 29.74 in 10.0 mi SSE 11.5 mph 18.4 mph N/A Thunderstorm Overcast
7:14 AM 60.4 °F 47.8 °F 63% 29.70 in 10.0 mi SSE 18.4 mph 23.0 mph N/A Thunderstorm Thunderstorm
7:34 AM 61.0 °F 48.4 °F 63% 29.70 in 10.0 mi SSE 13.8 mph 24.2 mph N/A Thunderstorm Thunderstorm
8:54 AM 62.2 °F 50.9 °F 66% 29.66 in 10.0 mi SSE 18.4 mph 27.6 mph N/A   Scattered Clouds
9:54 AM 62.8 °F 52.5 °F 69% 29.74 in 10.0 mi South 6.9 mph - N/A   Overcast
10:14 AM 62.6 °F 52.7 °F 70% 29.74 in 10.0 mi South 8.1 mph - N/A   Overcast
10:34 AM 61.7 °F 52.7 °F 72% 29.73 in 10.0 mi SE 9.2 mph - N/A   Overcast
10:54 AM 61.7 °F 52.9 °F 73% 29.72 in 10.0 mi SSE 8.1 mph - N/A   Overcast
11:14 AM 61.7 °F 53.6 °F 75% 29.72 in 10.0 mi SSE 8.1 mph - N/A   Overcast
11:34 AM 62.8 °F 54.1 °F 73% 29.71 in 10.0 mi SE 11.5 mph - N/A   Overcast
11:54 AM 64.6 °F 55.4 °F 72% 29.70 in 10.0 mi SSE 12.7 mph 16.1 mph N/A   Overcast
12:14 PM 65.3 °F 55.8 °F 71% 29.69 in 10.0 mi South 10.4 mph - N/A   Overcast
12:34 PM 65.5 °F 55.8 °F 71% 29.69 in 10.0 mi SSE 12.7 mph 16.1 mph N/A   Overcast
1:14 PM 66.2 °F 55.8 °F 69% 29.68 in 10.0 mi SSE 15.0 mph 20.7 mph N/A   Overcast
1:34 PM 65.5 °F 55.8 °F 71% 29.67 in 10.0 mi SSE 13.8 mph 20.7 mph N/A   Overcast
1:54 PM 65.3 °F 55.9 °F 72% 29.67 in 10.0 mi South 12.7 mph 23.0 mph N/A   Overcast
2:14 PM 66.6 °F 56.8 °F 71% 29.66 in 10.0 mi SSE 17.3 mph 21.9 mph N/A Thunderstorm Overcast
2:34 PM 67.8 °F 57.4 °F 69% 29.66 in 10.0 mi SSE 13.8 mph - N/A   Overcast
2:54 PM 68.4 °F 57.7 °F 69% 29.65 in 10.0 mi SSE 15.0 mph 18.4 mph N/A   Overcast
3:14 PM 68.4 °F 57.9 °F 69% 29.66 in 10.0 mi South 10.4 mph - N/A   Overcast
3:34 PM 68.5 °F 57.7 °F 68% 29.66 in 10.0 mi South 12.7 mph - N/A   Overcast
3:54 PM 69.8 °F 58.5 °F 67% 29.66 in 10.0 mi South 11.5 mph 19.6 mph N/A   Overcast
4:14 PM 69.3 °F 58.6 °F 69% 29.66 in 10.0 mi South 10.4 mph 16.1 mph N/A   Overcast
4:34 PM 69.8 °F 59.0 °F 68% 29.66 in 10.0 mi South 12.7 mph 18.4 mph N/A   Overcast
4:54 PM 70.0 °F 58.8 °F 68% 29.67 in 10.0 mi SSE 13.8 mph 18.4 mph N/A   Overcast
5:15 PM 70.7 °F 59.2 °F 67% 29.66 in 10.0 mi SSE 10.4 mph - N/A   Overcast
5:54 PM 71.8 °F 59.0 °F 64% 29.67 in 10.0 mi South 12.7 mph - N/A   Mostly Cloudy
6:14 PM 71.1 °F 59.2 °F 66% 29.68 in 10.0 mi South 6.9 mph - N/A   Scattered Clouds
6:34 PM 71.1 °F 59.2 °F 66% 29.68 in 10.0 mi South 6.9 mph - N/A   Scattered Clouds
6:54 PM 70.7 °F 59.4 °F 67% 29.68 in 10.0 mi South 5.8 mph - N/A   Scattered Clouds
7:14 PM 70.2 °F 59.2 °F 68% 29.69 in 10.0 mi South 8.1 mph - N/A   Scattered Clouds
7:34 PM 69.8 °F 59.0 °F 68% 29.68 in 10.0 mi SSE 8.1 mph - N/A   Scattered Clouds
7:54 PM 68.2 °F 59.4 °F 73% 29.67 in 7.0 mi SE 8.1 mph - N/A   Scattered Clouds
8:14 PM 67.1 °F 59.0 °F 75% 29.69 in 10.0 mi SSE 8.1 mph - N/A   Scattered Clouds
8:35 PM 66.7 °F 59.0 °F 76% 29.70 in 10.0 mi SSE 6.9 mph - N/A   Clear
8:54 PM 66.0 °F 59.0 °F 78% 29.67 in 7.0 mi SE 11.5 mph - N/A Rain Light Rain
9:14 PM 65.7 °F 59.0 °F 79% 29.67 in 10.0 mi SSE 11.5 mph - N/A   Clear
9:34 PM 63.7 °F 58.3 °F 83% 29.69 in 10.0 mi SSE 5.8 mph - N/A   Clear
9:54 PM 62.2 °F 57.7 °F 85% 29.70 in 10.0 mi SSE 3.5 mph - N/A   Clear
10:14 PM 61.7 °F 57.4 °F 86% 29.71 in 7.0 mi SSE 3.5 mph - N/A   Clear
10:34 PM 61.5 °F 57.6 °F 87% 29.72 in 7.0 mi Calm Calm - N/A   Clear
10:55 PM 62.1 °F 57.7 °F 86% 29.73 in 10.0 mi SW 5.8 mph - N/A   Clear
11:14 PM 62.8 °F 57.4 °F 82% 29.73 in 10.0 mi Calm Calm - N/A   Clear
11:34 PM 62.6 °F 57.6 °F 84% 29.73 in 10.0 mi West 4.6 mph - N/A   Clear
11:55 PM 61.0 °F 57.2 °F 87% 29.74 in 7.0 mi WSW 6.9 mph - N/A   Clear